Weather History for KM19 - August, 2014

Change the Weather History Date:

Friday, August 15, 2014

  Actual Average (KJBR) Record (KJBR)
Temperature  
Mean Temperature 76 °F 80 °F  
Max Temperature 88 °F 90 °F 105 °F (1954)
Min Temperature 65 °F 70 °F 55 °F (2001)
Degree Days  
Heating Degree Days 0 0  
Month to date heating degree days 0  
Since 1 June heating degree days 1  
Since 1 July heating degree days 0  
Cooling Degree Days 12 15  
Month to date cooling degree days 236  
Year to date cooling degree days 1323  
Since 1 June cooling degree days 1110  
Growing Degree Days 26 (Base 50)    
Moisture  
Dew Point 67 °F    
Average Humidity 71    
Maximum Humidity 97    
Minimum Humidity 44    
Precipitation  
Precipitation 0.00 in 0.09 in 2.28 in (1982)
Month to date precipitation 1.23  
Year to date precipitation 29.80  
Snow  
Snow 0.00 in 0.00 in - ()
Month to date snowfall 0.0  
Since 1 June snowfall 0.0  
Since 1 July snowfall 0.0  
Snow Depth -    
Sea Level Pressure  
Sea Level Pressure 30.02 in    
Wind  
Wind Speed 6 mph (SSE)    
Max Wind Speed 10 mph    
Max Gust Speed -    
Visibility 9 miles    
Events      
T = Trace of Precipitation, MM = Missing Value Source: NWS Daily Summary

Daily Weather History Graph

Daily Weather History Graph

Search for Another Location

Airport or City:

Trip Planner

Search our weather history database for the weather conditions in past years. The results will help you decide how hot, cold, wet, or windy it might be!

Date:

Astronomy

Aug. 15, 2014 Rise Set
Actual Time 6:23 AM CDT 7:53 PM CDT
Civil Twilight 5:56 AM CDT 8:20 PM CDT
Nautical Twilight 5:24 AM CDT 8:53 PM CDT
Astronomical Twilight 4:49 AM CDT 9:27 PM CDT
Moon 11:10 PM CDT (8/15) 11:53 AM CDT (8/15)
Length of Visible Light 14h 24m
Length of Day
13h 30m
Waning Gibbous, 69% of the Moon is Illuminated
Aug 15
Waning Gibbous
Aug 17
Last Quarter
Aug 25
New
Sep 2
First Quarter
Sep 8
Full

Hourly Weather History & Observations

Time (CDT) Temp. Heat Index Dew Point Humidity Pressure Visibility Wind Dir Wind Speed Gust Speed Precip Events Conditions
12:56 AM 70.9 °F - 64.9 °F 81% 30.03 in 10.0 mi ESE 9.2 mph - N/A   Clear
1:56 AM 70.0 °F - 65.8 °F 87% 30.02 in 10.0 mi SE 3.5 mph - N/A   Clear
2:56 AM 68.9 °F - 64.9 °F 87% 30.02 in 10.0 mi Calm Calm - N/A   Clear
3:56 AM 68.9 °F - 65.8 °F 90% 30.02 in 10.0 mi Calm Calm - N/A   Clear
4:56 AM 68.0 °F - 64.9 °F 90% 30.02 in 10.0 mi South 4.6 mph - N/A   Clear
5:56 AM 65.8 °F - 64.9 °F 97% 30.04 in 10.0 mi SE 6.9 mph - N/A   Clear
6:56 AM 66.9 °F - 64.9 °F 93% 30.05 in 10.0 mi ESE 6.9 mph - N/A   Clear
7:56 AM 70.9 °F - 66.9 °F 87% 30.07 in 10.0 mi South 5.8 mph - N/A   Partly Cloudy
8:56 AM 75.9 °F - 68.0 °F 76% 30.07 in 10.0 mi South 6.9 mph - N/A   Clear
9:56 AM 79.9 °F - 68.0 °F 67% 30.07 in 10.0 mi SSW 5.8 mph - N/A   Clear
10:56 AM 83.8 °F 87.0 °F 68.0 °F 59% 30.07 in 10.0 mi South 6.9 mph - N/A   Clear
11:47 AM 84.2 °F 86.6 °F 66.2 °F 55% 30.07 in 2.5 mi SSE 5.8 mph - N/A   Haze
11:56 AM 84.9 °F 87.6 °F 66.9 °F 55% 30.06 in 8.0 mi SSE 9.2 mph - N/A   Clear
12:56 PM 86.9 °F 89.6 °F 66.9 °F 51% 30.04 in 10.0 mi SSW 8.1 mph - N/A   Clear
1:56 PM 88.0 °F 89.0 °F 63.9 °F 44% 30.02 in 4.0 mi SE 5.8 mph - N/A   Haze
2:56 PM 88.0 °F 90.7 °F 66.9 °F 49% 30.01 in 4.0 mi SE 4.6 mph - N/A   Haze
3:56 PM 88.0 °F 89.6 °F 64.9 °F 46% 29.99 in 10.0 mi Calm Calm - N/A   Clear
4:56 PM 88.0 °F 90.3 °F 65.8 °F 48% 29.98 in 10.0 mi SE 10.4 mph - N/A   Clear
5:56 PM 86.0 °F 89.4 °F 68.0 °F 55% 29.97 in 10.0 mi SSE 4.6 mph - N/A   Clear
6:56 PM 83.8 °F 88.1 °F 70.0 °F 63% 29.97 in 10.0 mi SE 8.1 mph - N/A   Clear
7:56 PM 77.0 °F - 68.9 °F 76% 29.97 in 10.0 mi North - - N/A   Clear
9:56 PM 73.9 °F - 68.9 °F 84% 29.98 in 10.0 mi SE 5.8 mph - N/A   Clear
11:56 PM 72.9 °F - 68.0 °F 85% 29.97 in 10.0 mi South 3.5 mph - N/A   Clear